sat.trackr.live / text

‹ back to catalog

STARLINK-30349

NORAD 57713 · 2023-129R

PAYLOAD ACTIVE UNKNOWN

§ Identity

Operator
Country
US
Launch date
2023-08-27
Launch site
AFETR
Launch vehicle
Mass (kg)
RCS (m²)

Purposes: comms

External: N2YO · Heavens-Above · Gunter

§ Orbital elements

Epoch: 2026-09-20T21:21:44.885376Z

Period
94.27 min
Inclination
43.0004°
Eccentricity
0.0001126
Mean motion
15.27576942 rev/d
Perigee alt
482.3 km
Apogee alt
483.8 km
Semi-major
6,861.2 km
B*
1.9299e-5
RAAN
95.7097°
Arg perigee
267.7251°
Mean anomaly
92.3472°
Rev number
17,039

§ Raw data

STARLINK-303491 57713U 23129R   26263.89010284  .00000269  00000+0  19299-4 0  99912 57713  43.0004  95.7097 0001126 267.7251  92.3472 15.27576942170398

JSON: /api/v1/satellites/57713 · /tle

For live sub-satellite position, see the globe view (requires WebGL).

§ Visibility from observer

Set your observer location to see the next 7 days of passes ≥ 10°. The values pass through the URL so the page stays shareable.

No JS? Fill the form by hand. The geolocation button needs JavaScript.